カタログに戻る

CZ-3B R/B

運用中HEO
NORAD 41022·ROCKET BODY·🇨🇳 China

打ち上げ Nov 3, 2015 から Xichang Satellite Launch Center

Loading…

次のパス (今後24時間)

TLE

最新Source: Space-Track

元期: Sep 13, 2026, 20:08 UTC

1 41022U 15063B   26256.83931576  .00017863  00000-0  12300-2 0  9990
2 41022  26.8280 127.6942 6105466 201.9231 113.2345  3.93126984112372

AllMySatでCZ-3B R/Bをリアルタイム追跡

Download on the App Store